Flag for U.S.A. Weather past 2 weeks in Port St. Lucie, Florida, U.S.A.

Now
81 °F

Clear.


Feels Like: 85 °F
Forecast: 76 / 92 °F
Wind: 3 mph from Southeast

Location: Witham Field Airport

Current Time: Aug 22, 2014 at 9:53:32 PM

Latest Report: Aug 22, 2014 at 9:15 PM


Visibility: 10 mi

Pressure: 30.03 "Hg

Humidity: 79%

Dew point: 73 °F

Location of Port St. LucieLocation

Historic Weather in Port St. Lucie — Graph

°F

Port St. Lucie temperature yesterday

Maximum temperature yesterday: 90 °F (at 11:47 AM)
Minimum temperature yesterday: 75 °F (at 4:55 AM)
Average temperature yesterday: 80 °F

Past Weeks' High & Low Weather Summary

 TemperatureHumidityPressure
High91 °F (Aug 10, 3:47 PM)100% (Aug 8, 4:55 AM)30.15 "Hg (Aug 8, 4:55 AM)
Low72 °F (Aug 8, 4:55 AM)41% (Aug 10, 3:47 PM)29.97 "Hg (Aug 12, 5:47 PM)
Average79 °F82%30.05 "Hg
* Reported Aug 7 8:15 PM — Aug 22 8:35 PM, Port St. Lucie, Weather by CustomWeather, © 2014

Note: Actual official high and low records may vary slightly from our data, if they occured in-between our weather recording intervals... More about our weather records

Advertising

Port St. Lucie weather history for previous 24 hours

 ConditionsComfort  
Time TempWeatherWind HumidityBarometerVisibility
8:35 PM
Aug 22
81 °FSunny.3 mph79%30.03 "Hg10 mi
8:15 PM81 °FSunny.3 mph79%30.02 "Hg10 mi
6:47 PM84 °FScattered clouds.8 mph70%30.01 "Hg7 mi
5:47 PM86 °FScattered clouds.12 mph66%30.02 "Hg7 mi
4:47 PM88 °FScattered clouds.10 mph62%30.02 "Hg7 mi
3:47 PM90 °FScattered clouds.10 mph55%30.04 "Hg7 mi
2:47 PM90 °FPartly sunny.10 mph52%30.05 "Hg7 mi
1:47 PM88 °FPartly sunny.10 mph62%30.07 "Hg7 mi
12:47 PM90 °FBroken clouds.10 mph59%30.08 "Hg7 mi
11:47 AM86 °FBroken clouds.No wind66%30.10 "Hg7 mi
10:47 AM86 °FBroken clouds.No wind66%30.10 "Hg7 mi
9:47 AM84 °FScattered clouds.3 mph74%30.10 "Hg7 mi
8:47 AM82 °FScattered clouds.No wind79%30.09 "Hg7 mi
7:47 AM77 °FPassing clouds.No wind94%30.09 "Hg7 mi
6:50 AM77 °FPassing clouds.No wind94%30.07 "Hg10 mi
6:15 AM77 °FWarm.No wind94%30.07 "HgN/A
5:55 AM77 °FWarm.No wind94%30.06 "HgN/A
5:35 AM77 °FWarm.No wind89%30.05 "HgN/A
5:15 AM77 °FWarm.No wind94%30.06 "HgN/A
4:55 AM77 °FWarm.No wind94%30.06 "HgN/A
4:35 AM77 °FWarm.No wind89%30.06 "HgN/A
4:15 AM77 °FWarm.No wind94%30.06 "HgN/A
3:55 AM77 °FWarm.No wind89%30.07 "HgN/A
3:35 AM77 °FWarm.No wind89%30.07 "HgN/A
3:15 AM77 °FWarm.No wind94%30.07 "HgN/A
2:55 AM77 °FWarm.No wind89%30.08 "HgN/A
2:35 AM79 °FWarm.No wind94%30.09 "HgN/A
1:55 AM79 °FWarm.No wind89%30.10 "HgN/A
1:35 AM79 °FWarm.No wind89%30.10 "HgN/A
1:15 AM79 °FWarm.No wind89%30.11 "HgN/A
12:55 AM79 °FWarm.No wind89%30.12 "HgN/A
12:35 AM79 °FWarm.No wind94%30.12 "HgN/A
12:15 AM79 °FWarm.3 mph89%30.12 "HgN/A
11:55 PM
Aug 21
79 °FWarm.No wind94%30.12 "HgN/A
11:35 PM79 °FWarm.No wind94%30.13 "HgN/A
11:15 PM81 °FWarm.No wind89%30.13 "HgN/A
10:55 PM79 °FWarm.No wind89%30.12 "HgN/A
10:35 PM79 °FWarm.No wind89%30.12 "HgN/A
10:15 PM79 °FWarm.No wind89%30.12 "HgN/A
9:55 PM79 °FWarm.3 mph89%30.12 "HgN/A
9:35 PM79 °FWarm.3 mph89%30.12 "HgN/A
9:15 PM81 °FClear.No wind84%30.11 "HgN/A
Weather by CustomWeather, © 2014

See weather overviewHow to use our weather pages